Вернуться в каталог

NOAA 17 DEB

АктивенPO
NORAD 49485·DEBRIS·🇺🇸 United States

Запущен Jun 24, 2002 с Vandenberg Space Force Base

Loading…

Ближайшие Пролёты (ближайшие 24 часа)

TLE

СвежийSource: Space-Track

Эпоха: Sep 14, 2026, 09:49 UTC

1 49485U 02032DP  26257.40960257  .00007359  00000-0  11897-2 0  9994
2 49485  98.8813 318.4816 0017788  47.2057 313.0640 14.71564673275696

Отслеживайте NOAA 17 DEB в реальном времени с AllMySat

Download on the App Store